Cocoa Beach, FL

3:04 AM EDT on October 17, 2017 (GMT -0400)
Patrick Air Force Base

Weather History for KCOF - January, 2013

Change the Weather History Date:

Thursday, January 31, 2013

  Actual Average Record
Temperature  
Mean Temperature 62 °F -  
Max Temperature 70 °F 68 °F 84 °F (2001)
Min Temperature 55 °F 55 °F 46 °F (2009)
Degree Days  
Heating Degree Days 2    
Growing Degree Days 12 (Base 50)    
Moisture  
Dew Point 50 °F    
Average Humidity 71    
Maximum Humidity 94    
Minimum Humidity 32    
Precipitation  
Precipitation 0.04 in - - ()
Sea Level Pressure  
Sea Level Pressure 30.07 in    
Wind  
Wind Speed 18 mph (NW)    
Max Wind Speed 31 mph    
Max Gust Speed 37 mph    
Visibility 9 miles    
Events Rain    
Averages and records for this station are not official NWS values.
T = Trace of Precipitation, MM = Missing Value Source: NWS Daily Summary

Daily Weather History Graph

Daily Weather History Graph

Search for Another Location

Airport or City:

Trip Planner

Search our weather history database for the weather conditions in past years. The results will help you decide how hot, cold, wet, or windy it might be!

Date:

Astronomy

Jan. 31, 2013 Rise Set
Actual Time 7:10 AM EST 6:01 PM EST
Civil Twilight 6:45 AM EST 6:26 PM EST
Nautical Twilight 6:17 AM EST 6:54 PM EST
Astronomical Twilight 5:49 AM EST 7:22 PM EST
Moon 10:31 PM EST (1/31) 9:37 AM EST (1/31)
Length of Visible Light 11h 40m
Length of Day
10h 51m
Waning Gibbous, 80% of the Moon is Illuminated
Jan 31
Waning Gibbous
Feb 3
Last Quarter
Feb 10
New
Feb 17
First Quarter
Feb 25
Full

Hourly Weather History & Observations

Time (EST) Temp. Dew Point Humidity Pressure Visibility Wind Dir Wind Speed Gust Speed Precip Events Conditions
12:55 AM 70.2 °F 64.8 °F 83% 29.94 in 10.0 mi SSW 16.1 mph - N/A   Clear
1:55 AM 69.6 °F 65.7 °F 87% 29.94 in 10.0 mi SSW 17.3 mph - N/A   Clear
2:55 AM 69.1 °F 66.0 °F 90% 29.93 in 10.0 mi SSW 18.4 mph - N/A   Clear
3:45 AM 69.8 °F 66.2 °F 88% 29.96 in 10.0 mi West 20.7 mph 24.2 mph N/A   Scattered Clouds
3:55 AM 68.4 °F 64.8 °F 88% 29.96 in 10.0 mi NW 23.0 mph - 0.00 in Rain Light Rain
3:58 AM 64.4 °F 62.6 °F 94% 29.97 in 5.0 mi WNW 23.0 mph 28.8 mph N/A Rain Rain
4:27 AM 62.6 °F 60.8 °F 94% 29.98 in 10.0 mi NW 18.4 mph - N/A   Light Drizzle
4:45 AM 62.6 °F 60.8 °F 94% 29.99 in 9.0 mi NW 21.9 mph - N/A   Light Drizzle
4:55 AM 61.9 °F 59.7 °F 93% 29.99 in 7.0 mi NW 27.6 mph 33.4 mph 0.03 in   Overcast
4:59 AM 59.0 °F 57.2 °F 94% 30.00 in 5.0 mi NW 31.1 mph 36.8 mph N/A Rain Light Rain
5:00 AM 59.0 °F 57.2 °F 94% 30.00 in 5.0 mi NW 29.9 mph 36.8 mph N/A   Overcast
5:02 AM 59.0 °F 55.4 °F 88% 30.00 in 4.0 mi NW 27.6 mph 36.8 mph N/A   Overcast
5:03 AM 59.0 °F 55.4 °F 88% 30.00 in 4.0 mi NW 26.5 mph 36.8 mph N/A   Overcast
5:09 AM 57.2 °F 55.4 °F 94% 30.01 in 7.0 mi NW 26.5 mph 33.4 mph N/A Rain Light Rain
5:20 AM 57.2 °F 55.4 °F 94% 30.01 in 10.0 mi NW 18.4 mph - N/A   Overcast
5:55 AM 56.7 °F 52.3 °F 85% 30.03 in 10.0 mi NW 18.4 mph 26.5 mph 0.00 in   Overcast
6:29 AM 55.4 °F 51.8 °F 88% 30.04 in 10.0 mi NW 18.4 mph - N/A   Overcast
6:37 AM 55.4 °F 51.8 °F 88% 30.04 in 10.0 mi NW 20.7 mph 25.3 mph N/A   Light Drizzle
6:55 AM 55.8 °F 51.4 °F 85% 30.05 in 10.0 mi NW 16.1 mph - 0.00 in   Overcast
7:39 AM 57.2 °F 51.8 °F 82% 30.08 in 10.0 mi NW 17.3 mph - N/A   Mostly Cloudy
7:55 AM 56.8 °F 50.4 °F 79% 30.09 in 10.0 mi NW 13.8 mph - 0.01 in   Light Drizzle
7:57 AM 57.2 °F 50.0 °F 77% 30.09 in 10.0 mi WNW 15.0 mph 21.9 mph N/A   Overcast
8:05 AM 57.2 °F 50.0 °F 77% 30.09 in 10.0 mi NW 11.5 mph - N/A   Light Drizzle
8:17 AM 57.2 °F 50.0 °F 77% 30.09 in 10.0 mi NW 11.5 mph - N/A   Overcast
8:55 AM 57.9 °F 51.3 °F 78% 30.10 in 10.0 mi WNW 16.1 mph 20.7 mph 0.00 in   Overcast
9:55 AM 58.3 °F 48.6 °F 70% 30.12 in 10.0 mi NW 16.1 mph 23.0 mph N/A   Overcast
9:58 AM 59.0 °F 46.4 °F 63% 30.12 in 10.0 mi NW 18.4 mph 24.2 mph N/A   Light Drizzle
10:08 AM 59.0 °F 46.4 °F 63% 30.13 in 10.0 mi NW 15.0 mph 23.0 mph N/A   Mostly Cloudy
10:55 AM 61.0 °F 44.6 °F 55% 30.14 in 10.0 mi NW 11.5 mph - 0.00 in   Mostly Cloudy
11:55 AM 64.4 °F 44.1 °F 48% 30.13 in 10.0 mi NW 11.5 mph - N/A   Clear
12:55 PM 64.9 °F 40.8 °F 41% 30.12 in 10.0 mi NW 8.1 mph - N/A   Clear
1:55 PM 65.7 °F 37.6 °F 36% 30.11 in 10.0 mi WNW 11.5 mph - N/A   Clear
2:55 PM 65.8 °F 38.5 °F 37% 30.11 in 10.0 mi WNW 9.2 mph - N/A   Clear
3:55 PM 66.0 °F 36.5 °F 34% 30.12 in 10.0 mi NNW 6.9 mph - N/A   Clear
4:55 PM 64.6 °F 33.6 °F 32% 30.13 in 10.0 mi NW 13.8 mph - N/A   Clear
5:55 PM 62.1 °F 38.5 °F 42% 30.14 in 10.0 mi NNW 8.1 mph - N/A   Clear
6:55 PM 58.3 °F 45.1 °F 62% 30.16 in 10.0 mi North 4.6 mph - N/A   Clear
7:55 PM 57.7 °F 43.0 °F 58% 30.18 in 10.0 mi WNW 11.5 mph - N/A   Clear
8:55 PM 57.9 °F 36.7 °F 45% 30.21 in 10.0 mi WNW 11.5 mph - N/A   Clear
9:55 PM 57.4 °F 34.0 °F 41% 30.21 in 10.0 mi NW 12.7 mph - N/A   Clear
10:55 PM 56.7 °F 34.3 °F 43% 30.23 in 10.0 mi NNW 12.7 mph - N/A   Clear
11:55 PM 55.9 °F 35.4 °F 46% 30.24 in 10.0 mi NNW 15.0 mph - N/A   Clear